Location: Newark
(33.4133°N, 82.3847°W)
Time: 12:11:59
(UTC+00:00)

Hubble Space Telescope - Pass Details

Date: 30 January 2020
Orbit: 536 x 540 km, 28.5° (Epoch: 20 February)

Event Time Altitude Azimuth Distance (km) Brightness Sun altitude
Exits shadow 11:55:26 - 243° (WSW) 2,616 3.8 -7.1°
Reaches altitude 10° 11:57:43 10° 234° (SW) 1,776 3.1 -6.6°
Maximum altitude 12:01:25 33° 169° (S) 913 2.3 -5.9°
Drops below altitude 10° 12:05:07 10° 105° (ESE) 1,779 5.4 -5.2°
Sets 12:07:32 0° 96° (E) 2,671 6.4 -4.7°
